Home > Weather > Bathurst > Past weeks

Flag for Canada Past Weather in Bathurst, New Brunswick, Canada — Yesterday and Last 2 Weeks

Now
61 °F

Fog.


Feels Like: 61 °F
Forecast: 60 / 80 °F
Wind: 6 mph from West

Location: Bathurst Airport

Current Time: Jul 27, 2016 at 4:53:47 AM

Latest Report: Jul 27, 2016 at 4:00 AM


Visibility: 6 mi

Pressure: 29.78 "Hg

Humidity: 94%

Dew Point: 59 °F

Location of BathurstLocation

Past Weather in Bathurst — Graph

°F

Bathurst Temperature Yesterday

Maximum temperature yesterday: 73 °F (at 5:00 PM)
Minimum temperature yesterday: 64 °F (at 4:00 AM)
Average temperature yesterday: 68 °F

High & Low Weather Summary for the Past Weeks

 TemperatureHumidityPressure
High90 °F (Jul 14, 1:00 PM)100% (Jul 12, 4:00 AM)30.16 "Hg (Jul 12, 4:00 AM)
Low48 °F (Jul 13, 6:00 AM)31% (Jul 21, 3:00 PM)29.53 "Hg (Jul 22, 12:00 PM)
Average69 °F74%29.82 "Hg
* Reported Jul 12 3:00 AM — Jul 27 3:00 AM, Bathurst, Weather by CustomWeather, © 2016

Note: Actual official high and low records may vary slightly from our data, if they occured in-between our weather recording intervals... More about our weather records

Advertising

Bathurst Weather History for the Previous 24 Hours

Scroll right to see more
 ConditionsComfort  
Time TempWeatherWind HumidityBarometerVisibility
3:00 AM
Wed, Jul 27
59 °FFog.3 mph100%29.79 "Hg4 mi
2:00 AM63 °FFog.2 mph94%29.78 "Hg6 mi
1:00 AM61 °FFog.No wind100%29.78 "Hg4 mi
12:00 AM63 °FFog.3 mph94%29.77 "Hg5 mi
11:00 PM
Tue, Jul 26
64 °FFog.2 mph94%29.76 "Hg5 mi
10:00 PM66 °FPassing clouds.No wind94%29.75 "Hg15 mi
9:00 PM68 °FScattered showers. Scattered clouds.2 mph94%29.74 "Hg12 mi
8:00 PM70 °FScattered clouds.2 mph83%29.72 "Hg15 mi
7:00 PM72 °FScattered clouds.5 mph78%29.71 "Hg15 mi
6:00 PM72 °FBroken clouds.5 mph83%29.70 "Hg15 mi
5:00 PM73 °FPartly sunny.2 mph74%29.69 "Hg15 mi
4:00 PM72 °FPartly sunny.3 mph78%29.69 "Hg15 mi
3:00 PM72 °FMostly cloudy.5 mph78%29.69 "Hg12 mi
2:00 PM72 °FMostly cloudy.7 mph78%29.68 "Hg15 mi
1:00 PM72 °FPartly sunny.9 mph78%29.68 "Hg15 mi
12:00 PM70 °FPartly sunny.8 mph78%29.70 "Hg15 mi
11:00 AM70 °FPartly sunny.9 mph83%29.69 "Hg15 mi
10:00 AM70 °FScattered clouds.9 mph78%29.70 "Hg15 mi
9:00 AM66 °FFog.6 mph94%29.72 "Hg5 mi
8:00 AM64 °FFog.2 mph100%29.71 "Hg5 mi
7:45 AM64 °FFog.3 mph100%29.71 "Hg2 mi
7:00 AM64 °FDrizzle. Fog.2 mph100%29.72 "Hg1 mi
6:00 AM64 °FDrizzle. Fog.2 mph100%29.72 "Hg1 mi
5:00 AM64 °FDrizzle. Fog.2 mph100%29.72 "Hg1 mi
4:00 AM64 °FRain showers. Fog.3 mph100%29.74 "Hg2 mi
Weather by CustomWeather, © 2016

See weather overviewHow to use our weather pages